This demonstration page uses our WeatherBlox Daily Observations layout. Learn more.

Left ArrowRight Arrow

39.08367, -84.50855

Hourly Observations for February 6, 2016

Temp ( °F °C ) Dew Point ( °F °C ) Humidity (%) Winds ( mph kmh ) Pressure ( in mb ) Visibility ( mi km ) Precip ( " mm )
12:53 am 00:53 Clear 28 -2.2 24 -4.4 85 85 N N/A 30.37 1029 10 16 N/A
1:53 am 01:53 Clear 27 -2.8 24 -4.4 89 89 N N/A 30.36 1028 10 16 N/A
2:53 am 02:53 Clear 28 -2.2 25 -3.9 88 88 undefined N/A 30.37 1028 9 14 N/A
3:53 am 03:53 Clear 27 -2.8 25 -3.9 92 92 N N/A 30.37 1029 8 13 N/A
4:53 am 04:53 Clear 26 -3.3 24 -4.4 92 92 N N/A 30.37 1029 8 13 N/A
5:53 am 05:53 Clear with Mist and Fog 24 -4.4 23 -5 96 96 N N/A 30.38 1029 5 8 N/A
6:08 am 06:08 Clear with Mist and Fog 23 -5 21 -6 93 93 N N/A 30.39 1029 2 2 N/A
6:16 am 06:16 Clear with Freezing Fog 24 -4.4 23 -5 96 96 N N/A 30.39 1029 1 1 N/A
6:38 am 06:38 Clear with Mist and Fog 25 -4 25 -4 100 100 N N/A 30.42 1030 2 3 N/A
6:45 am 06:45 Clear with Mist and Fog 24 -4.4 23 -5 96 96 N N/A 30.42 1030 4 6 N/A
6:53 am 06:53 Clear with Mist and Fog 24 -4.4 24 -4.4 100 100 N N/A 30.39 1029 4 6 N/A
7:53 am 07:53 Sunny with Mist and Fog 23 -5 23 -5 100 100 N N/A 30.39 1029 6 10 N/A
8:53 am 08:53 Sunny with Mist and Fog 27 -2.8 26 -3.3 96 96 N N/A 30.40 1030 6 10 N/A
9:53 am 09:53 Sunny 31 -0.6 28 -2.2 89 89 N N/A 30.40 1029 7 11 N/A
10:53 am 10:53 Sunny 35 1.7 28 -2.2 76 76 N N/A 30.39 1029 8 13 N/A
11:53 am 11:53 Sunny 39 3.9 26 -3.3 60 60 N N/A 30.37 1029 10 16 N/A
12:53 pm 12:53 Sunny 42 5.6 21 -6.1 43 43 VRB 3 6 30.34 1027 10 16 N/A
1:53 pm 13:53 Mostly Cloudy 45 7.2 21 -6.1 39 39 W 6 9 30.30 1026 10 16 N/A
2:53 pm 14:53 Partly Cloudy 46 7.8 24 -4.4 42 42 W 10 17 30.29 1026 10 16 N/A
3:53 pm 15:53 Mostly Sunny 47 8.3 24 -4.4 41 41 W 6 9 30.27 1025 10 16 N/A
4:53 pm 16:53 Sunny 46 7.8 23 -5 40 40 W 7 11 30.27 1025 10 16 N/A
5:53 pm 17:53 Sunny 42 5.6 23 -5 47 47 W 7 11 30.28 1025 10 16 N/A
6:53 pm 18:53 Clear 38 3.3 24 -4.4 57 57 N N/A 30.28 1026 10 16 N/A
7:53 pm 19:53 Clear 33 0.6 28 -2.2 82 82 N N/A 30.28 1026 10 16 N/A
8:53 pm 20:53 Clear 32 undefined 26 -3.3 79 79 N N/A 30.28 1026 10 16 N/A
9:53 pm 21:53 Clear 30 -1.1 25 -3.9 82 82 N N/A 30.27 1025 10 16 N/A
10:53 pm 22:53 Clear 29 -1.7 26 -3.3 89 89 N N/A 30.27 1025 10 16 N/A
11:53 pm 23:53 Clear 28 -2.2 25 -3.9 88 88 N N/A 30.25 1025 10 16 N/A

Powered by AerisWeather